Weather History for KMYL - January, 2012

Change the Weather History Date:

Sunday, January 22, 2012

  Actual Average Record
Temperature  
Mean Temperature 20 °F 20 °F  
Max Temperature 27 °F 29 °F 47 °F (1981)
Min Temperature 12 °F 11 °F -32 °F (1930)
Degree Days  
Heating Degree Days 45 45  
Month to date heating degree days 897 999  
Since 1 July heating degree days 4398 5073  
Cooling Degree Days 0 0  
Month to date cooling degree days 0 0  
Year to date cooling degree days 0 0  
Moisture  
Dew Point 20 °F    
Average Humidity 85    
Maximum Humidity 96    
Minimum Humidity 74    
Precipitation  
Precipitation 0.17 in 0.05 in 1.09 in (1943)
Month to date precipitation 2.26 1.26  
Year to date precipitation 2.26 1.26  
Sea Level Pressure  
Sea Level Pressure 29.90 in    
Wind  
Wind Speed 5 mph (SSE)    
Max Wind Speed 16 mph    
Max Gust Speed 20 mph    
Visibility 4 miles    
Events Snow    
T = Trace of Precipitation, MM = Missing Value Source: NWS Daily Summary

Daily Weather History Graph

Daily Weather History Graph

Search for Another Location

Airport or City:

Trip Planner

Search our weather history database for the weather conditions in past years. The results will help you decide how hot, cold, wet, or windy it might be!

Date:

Astronomy

Jan. 22, 2012 Rise Set
Actual Time 8:14 AM MST 5:38 PM MST
Civil Twilight 7:42 AM MST 6:10 PM MST
Nautical Twilight 7:06 AM MST 6:46 PM MST
Astronomical Twilight 6:31 AM MST 7:20 PM MST
Moon 7:33 AM MST (1/22) 5:26 PM MST (1/22)
Length of Visible Light 10h 28m
Length of Day
9h 23m
Waning Crescent, 0% of the Moon is Illuminated
Jan 22
Waning Crescent
Jan 23
New
Jan 30
First Quarter
Feb 7
Full
Feb 14
Last Quarter

Hourly Weather History & Observations

Time (MST) Temp. Windchill Dew Point Humidity Pressure Visibility Wind Dir Wind Speed Gust Speed Precip Events Conditions
12:27 AM 26.6 °F - 19.4 °F 74% 29.80 in 10.0 mi Calm Calm - N/A   Overcast
12:51 AM 26.1 °F 20.5 °F 19.0 °F 75% 29.87 in 9.0 mi NW 4.6 mph - N/A   Overcast
1:32 AM 26.6 °F - 19.4 °F 74% 29.82 in 10.0 mi Calm Calm - 0.00 in   Overcast
2:51 AM 23.0 °F 18.4 °F 19.0 °F 85% 29.94 in 10.0 mi ENE 3.5 mph - N/A   Overcast
3:51 AM 23.0 °F - 19.0 °F 85% 29.96 in 10.0 mi Calm Calm - N/A   Overcast
5:51 AM 17.1 °F 11.7 °F 15.1 °F 92% 30.00 in 10.0 mi NE 3.5 mph - N/A   Clear
6:51 AM 14.0 °F - 12.0 °F 92% 30.03 in 10.0 mi Calm Calm - N/A   Clear
7:51 AM 14.0 °F - 10.9 °F 88% 30.02 in 10.0 mi Calm Calm - N/A   Clear
8:51 AM 12.0 °F - 9.0 °F 88% 30.05 in 10.0 mi Calm Calm - N/A   Clear
9:51 AM 18.0 °F - 14.0 °F 84% 30.04 in 10.0 mi Calm Calm - N/A   Clear
10:51 AM 19.0 °F - 17.1 °F 92% 30.06 in 10.0 mi Calm Calm - N/A   Clear
11:51 AM 21.9 °F 15.7 °F 17.1 °F 82% 30.02 in 10.0 mi SW 4.6 mph - N/A   Mostly Cloudy
12:51 PM 25.0 °F - 18.0 °F 75% 29.97 in 10.0 mi Calm Calm - N/A   Overcast
1:51 PM 26.1 °F 15.0 °F 19.0 °F 75% 29.96 in 7.0 mi SSE 12.7 mph - 0.00 in Snow Light Snow
3:20 PM 26.6 °F 16.8 °F 19.4 °F 74% 29.85 in 1.8 mi SSE 10.4 mph - 0.00 in Snow Light Snow
3:34 PM 26.6 °F 18.2 °F 19.4 °F 74% 29.85 in 1.0 mi SSE 8.1 mph - 0.00 in Snow Light Snow
3:51 PM 27.0 °F 16.7 °F 19.9 °F 75% 29.94 in 1.2 mi SSE 11.5 mph - 0.01 in Snow Light Snow
4:06 PM 26.6 °F 17.5 °F 19.4 °F 74% 29.82 in 2.5 mi SSE 9.2 mph - 0.00 in Snow Light Snow
4:08 PM 26.6 °F 16.8 °F 19.4 °F 74% 29.83 in 3.0 mi SSE 10.4 mph - 0.00 in Snow Light Snow
4:51 PM 25.0 °F 14.8 °F 21.0 °F 85% 29.96 in 4.0 mi SSE 10.4 mph - 0.00 in Snow Light Snow
4:59 PM 24.8 °F 14.0 °F 21.2 °F 86% 29.84 in 1.8 mi SSE 11.5 mph - 0.00 in Snow Light Snow
5:09 PM 24.8 °F 15.3 °F 21.2 °F 86% 29.85 in 2.0 mi SSE 9.2 mph - 0.00 in Snow Light Snow
5:17 PM 24.8 °F 16.1 °F 21.2 °F 86% 29.85 in 1.5 mi SSE 8.1 mph - 0.00 in Snow Light Snow
5:28 PM 24.8 °F 16.1 °F 23.0 °F 93% 29.85 in 0.8 mi SSE 8.1 mph - 0.00 in Snow Light Snow
5:47 PM 24.8 °F 16.1 °F 23.0 °F 93% 29.85 in 1.2 mi SSE 8.1 mph - 0.01 in Snow Light Snow
5:51 PM 25.0 °F 16.3 °F 23.0 °F 92% 29.99 in 1.5 mi SSE 8.1 mph - 0.02 in Snow Light Snow
6:51 PM 25.0 °F 18.1 °F 23.0 °F 92% 29.98 in 1.2 mi SSE 5.8 mph - 0.02 in Snow Light Snow
7:03 PM 24.8 °F 17.9 °F 23.0 °F 93% 29.84 in 2.0 mi SSE 5.8 mph - 0.00 in Snow Light Snow
7:12 PM 24.8 °F 17.9 °F 23.0 °F 93% 29.84 in 2.0 mi SSE 5.8 mph - 0.01 in Snow Light Snow
7:19 PM 24.8 °F 17.9 °F 23.0 °F 93% 29.84 in 1.5 mi SSE 5.8 mph - 0.01 in Snow Light Snow
8:07 PM 24.8 °F 19.1 °F 23.0 °F 93% 29.83 in 2.0 mi SSE 4.6 mph - 0.00 in Snow Light Snow
8:18 PM 24.8 °F 19.1 °F 23.0 °F 93% 29.84 in 1.5 mi SSE 4.6 mph - 0.01 in Snow Light Snow
9:09 PM 24.8 °F 16.9 °F 23.0 °F 93% 29.83 in 1.0 mi SSE 6.9 mph - 0.01 in Snow Light Snow
9:33 PM 26.6 °F 19.1 °F 24.8 °F 93% 29.83 in 1.2 mi SE 6.9 mph - 0.03 in Snow Light Snow
9:51 PM 26.1 °F 18.4 °F 24.1 °F 92% 29.96 in 1.2 mi SSE 6.9 mph - 0.04 in Snow Light Snow
9:57 PM 26.6 °F 19.1 °F 24.8 °F 93% 29.83 in 1.2 mi SSE 6.9 mph - 0.00 in Snow Light Snow
10:41 PM 26.6 °F 19.1 °F 24.8 °F 93% 29.81 in 2.0 mi SE 6.9 mph - 0.02 in Snow Light Snow
10:51 PM 26.1 °F 21.9 °F 24.1 °F 92% 29.93 in 2.5 mi SE 3.5 mph - 0.02 in Snow Light Snow
11:30 PM 26.6 °F 18.2 °F 24.8 °F 93% 29.81 in 1.5 mi SSE 8.1 mph - 0.01 in Snow Light Snow
11:51 PM 26.1 °F 18.4 °F 24.1 °F 92% 29.92 in 1.5 mi SSE 6.9 mph - 0.02 in Snow Light Snow